Probability
34 26 17 11 8 7 8 8 5 2 2 4 3 1 0 0 0 0 0 0 0 0 0 0 0 0 0 0 0 0 0 0 0 0 0 0 0 0 0 0 0 0 0
36 25 14 8 5 4 4 4 3 1 1 1 1 0 0 0 0 0 0 0 0 0 0 0 0 0 0 0 0 0 0 0 0 0 0 0 0 0 0 0 0 0 0
37 26 13 6 2 2 1 1 1 0 0 0 0 0 0 0 0 0 0 0 0 0 0 0 0 0 0 0 0 0 0 0 0 0 0 0 0 0 0 0 0 0 0
35 25 12 4 1 1 1 0 0 0 0 0 0 0 0 0 0 0 0 0 0 0 0 0 0 0 0 0 0 0 0 0 0 0 0 0 0 0 0 0 0 0 0
25 17 7 2 0 0 0 0 0 0 0 0 0 0 0 0 0 0 0 0 0 0 0 0 0 0 0 0 0 0 0 0 0 0 0 0 0 0 0 0 0 0 0
12 7 2 0 0 0 0 0 0 0 0 0 0 0 0 0 0 0 0 0 0 0 0 0 0 0 0 0 0 0 0 0 0 0 0 0 0 0 0 0 0 0 0
2 1 0 0 0 0 0 0 0 0 0 0 0 0 0 0 0 0 0 0 0 0 0 0 0 0 0 0 0 0 0 0 0 0 0 0 0 0 0 0 0 0 0
0 0 0 0 0 0 0 0 0 0 0 0 0 0 0 0 0 0 0 0 0 0 0 0 0 0 0 0 0 0 0 0 0 0 0 0 0 0 0 0 0 0 0
0 0 0 0 0 0 0 0 0 0 0 0 0 0 0 0 0 0 0 0 0 0 0 0 0 0 0 0 0 0 0 0 0 0 0 0 0 0 0 0 0 0 0
0 0 0 0 0 0 0 0 0 0 0 0 0 0 0 0 0 0 0 0 0 0 0 0 0 0 0 0 0 0 0 0 0 0 0 0 0 0 0 0 0 0 0
0 0 0 0 0 0 0 0 0 0 0 0 0 0 0 0 0 0 0 0 0 0 0 0 0 0 0 0 0 0 0 0 0 0 0 0 0 0 0 0 0 0 0
0 0 0 0 0 0 0 0 0 0 0 0 0 0 0 0 0 0 0 0 0 0 0 0 0 0 0 0 0 0 0 0 0 0 0 0 0 0 0 0 0 0 0
0 0 0 0 0 0 0 0 0 0 0 0 0 0 0 0 0 0 0 0 0 0 0 0 0 0 0 0 0 0 0 0 0 0 0 0 0 0 0 0 0 0 0
0 0 0 0 0 0 0 0 0 0 0 0 0 0 0 0 0 0 0 0 0 0 0 0 0 0 0 0 0 0 0 0 0 0 0 0 0 0 0 0 0 0 0
0 0 0 0 0 0 0 0 0 0 0 0 0 0 0 0 0 0 0 0 0 0 0 0 0 0 0 0 0 0 0 0 0 0 0 0 0 0 0 0 0 0 0
0 0 0 0 0 0 0 0 0 0 0 0 0 0 0 0 0 0 0 0 0 0 0 0 0 0 0 0 0 0 0 0 0 0 0 0 0 0 0 0 0 0 0
0 0 0 0 0 0 0 0 0 0 0 0 0 0 0 0 0 0 0 0 0 0 0 0 0 0 0 0 0 0 0 0 0 0 0 0 0 0 0 0 0 0 0
0 0 0 0 0 0 0 0 0 0 0 0 0 0 0 0 0 0 0 0 0 0 0 0 0 0 0 0 0 0 0 0 0 0 0 0 0 0 0 0 0 0 0
0 0 0 0 0 0 0 0 0 0 0 0 0 0 0 0 0 0 0 0 0 0 0 0 0 0 0 0 0 0 0 0 0 0 0 0 0 0 0 0 0 0 0
0 0 0 0 0 0 0 0 0 0 0 0 0 0 0 0 0 0 0 0 0 0 0 0 0 0 0 0 0 0 0 0 0 0 0 0 0 0 0 0 0 0 0
0 0 0 0 0 0 0 0 0 0 0 0 0 0 0 0 0 0 0 0 0 0 0 0 0 0 0 0 0 0 0 0 0 0 0 0 0 0 0 0 0 0 0
0 0 0 0 0 0 0 0 0 0 0 0 0 0 0 0 0 0 0 0 0 0 0 0 0 0 0 0 0 0 0 0 0 0 0 0 0 0 0 0 0 0 0
0 0 0 0 0 0 0 0 0 0 0 0 0 0 0 0 0 0 0 0 0 0 0 0 0 0 0 0 0 0 0 0 0 0 0 0 0 0 0 0 0 0 0
0 0 0 0 0 0 0 0 0 0 0 0 0 0 0 0 0 0 0 0 0 0 0 0 0 0 0 0 0 0 0 0 0 0 0 0 0 0 0 0 0 0 0
0 0 0 0 0 0 0 0 0 0 0 0 0 0 0 0 0 0 0 0 0 0 0 0 0 0 0 0 0 0 0 0 0 0 0 0 0 0 0 0 0 0 0
0 0 0 0 0 0 0 0 0 0 0 0 0 0 0 0 0 0 0 0 0 0 0 0 0 0 0 0 0 0 0 0 0 0 0 0 0 0 0 0 0 0 0
Wind_Speed
11 9 7 7 8 7 7 7 7 6 5 4 3 4 4 4 5 5 7 7 7 6 5 4 3 3 3 3 3 2 3 3 3 3 5 4 4 4 4 4 5 7 8
14 10 8 7 7 7 8 8 8 8 7 5 4 3 3 4 4 5 6 7 7 7 7 6 5 5 4 6 6 5 3 3 4 3 4 6 5 3 4 5 6 7 6
18 14 11 9 9 9 8 9 9 10 9 8 6 5 4 4 5 6 5 7 8 8 8 8 6 6 6 5 5 4 4 3 3 2 2 3 5 5 3 4 5 5 5
17 16 14 12 11 11 10 11 11 11 10 8 8 8 6 5 4 3 4 6 7 7 7 7 6 5 4 4 4 4 2 2 3 2 2 4 4 6 6 3 3 6 7
16 16 15 14 12 12 11 9 10 9 8 8 8 7 6 4 3 4 5 6 5 6 6 5 4 4 3 3 3 3 3 2 2 2 3 4 4 5 6 7 4 4 5
16 15 13 13 12 10 9 8 9 8 7 8 7 8 7 6 5 5 5 5 4 4 5 4 3 3 2 3 3 3 4 3 4 3 3 3 4 4 5 7 7 7 6
16 15 14 12 11 9 8 7 8 7 6 7 7 6 6 5 4 3 3 3 3 3 5 5 4 4 4 4 3 3 4 4 4 4 4 4 5 5 5 7 8 8 6
14 15 14 12 11 9 8 7 7 6 6 6 5 5 5 3 2 2 2 2 2 3 4 5 5 5 5 5 4 3 4 4 5 6 6 5 6 5 5 6 7 9 6
15 15 14 12 10 9 8 8 8 7 6 5 5 4 3 3 2 2 2 2 3 3 5 5 5 5 5 4 4 3 4 5 4 6 7 6 6 6 6 6 6 8 9
14 14 13 11 9 8 7 7 8 7 5 4 3 3 2 2 2 2 3 4 4 4 5 5 5 4 4 4 4 3 4 5 5 6 7 7 6 6 6 6 6 7 9
15 13 12 10 9 8 8 7 7 6 5 4 3 2 1 1 2 2 3 4 4 5 5 5 4 2 3 3 3 4 5 7 8 8 8 10 9 7 6 6 6 7 7
13 13 12 11 9 8 7 6 6 5 3 3 2 1 1 2 3 4 5 4 5 5 4 4 2 1 2 2 2 5 6 7 9 10 10 11 9 9 8 7 7 7 7
14 12 11 11 9 8 7 6 5 4 3 2 2 2 3 3 4 5 5 5 5 5 4 3 1 2 2 0 2 4 6 7 9 10 10 11 10 10 8 7 7 6 6
14 13 11 9 8 7 6 6 4 3 2 2 2 3 4 4 4 5 4 4 4 4 4 2 1 2 2 1 4 5 7 8 9 9 10 10 10 10 8 7 6 6 7
14 14 11 9 7 7 5 4 3 2 2 2 3 3 4 4 4 4 4 4 4 4 3 2 1 3 2 2 5 6 8 9 10 10 10 10 14 14 10 9 8 8 8
14 13 12 9 7 6 5 4 2 2 2 2 3 2 3 3 4 4 4 4 4 4 3 2 2 3 2 4 9 10 7 8 9 10 11 12 12 13 16 18 18 17 14
14 12 10 8 6 5 4 2 1 2 2 2 2 2 3 4 4 5 4 5 4 4 4 4 3 3 4 5 9 15 9 8 9 10 10 11 11 13 10 16 20 19 21
13 11 8 7 5 4 3 2 2 2 2 2 3 3 4 5 5 5 5 5 4 4 3 3 3 2 3 6 9 17 9 8 9 10 11 11 11 11 13 14 14 14 13
11 8 7 6 5 4 2 2 3 3 2 3 4 5 5 6 6 6 7 5 3 3 3 2 2 2 4 8 11 16 7 8 10 11 11 12 11 15 19 15 13 13 9
8 7 6 6 5 2 2 2 3 3 4 5 6 6 6 6 7 8 6 3 1 2 4 5 4 4 5 9 13 17 7 8 10 11 11 14 14 18 19 13 11 10 6
8 7 7 5 3 1 1 1 3 4 6 6 6 7 7 7 7 5 3 3 4 6 6 6 5 5 6 10 16 19 9 9 10 10 9 10 17 19 18 14 8 6 3
8 7 6 3 1 1 1 2 4 6 6 6 6 7 7 6 5 5 6 7 7 7 6 5 6 5 6 10 14 19 18 15 10 9 8 10 17 17 15 10 7 3 4
6 5 4 2 2 3 3 3 5 5 5 6 6 6 7 8 8 8 7 6 6 5 4 4 5 6 6 8 14 16 18 19 11 8 15 16 16 13 9 11 9 6 6
4 3 2 2 3 4 3 3 4 4 4 5 6 6 7 8 7 6 5 5 4 3 4 5 6 6 7 7 9 9 10 14 12 10 12 14 13 10 10 9 7 6 6
3 2 2 3 3 2 2 2 2 4 5 6 6 7 6 6 5 5 3 3 1 1 2 4 5 7 8 11 16 12 9 10 10 10 7 6 7 8 7 7 6 6 7
2 1 1 1 1 1 1 2 3 4 6 6 7 5 4 4 3 3 3 4 3 6 7 8 9 7 10 15 16 17 17 16 16 9 7 7 7 7 8 7 6 6 7
Wind_Direction
119 110 101 94 85 73 64 56 49 37 43 48 49 54 53 45 42 42 37 33 28 25 30 19 10 18 26 16 10 6 4 359 353 350 326 305 290 297 302 313 322 319 319
129 125 111 97 89 83 71 62 55 50 52 59 60 66 70 60 55 34 29 26 25 20 22 18 15 14 17 19 18 22 10 357 14 5 326 316 318 309 322 328 314 313 316
133 132 123 108 97 87 80 75 69 64 60 60 61 56 42 33 27 21 18 18 25 27 31 34 33 28 33 24 13 29 22 341 338 359 299 301 293 312 273 286 293 304 313
130 127 122 114 106 99 89 82 76 71 65 65 67 66 61 46 20 14 18 15 21 26 37 40 36 30 29 21 0 22 351 338 320 308 260 256 273 291 299 291 292 306 303
129 127 123 119 112 105 98 90 83 75 70 69 70 69 62 51 32 27 21 12 9 17 24 35 28 21 13 360 348 345 332 308 287 283 279 278 278 261 282 295 289 285 276
128 124 121 119 113 106 100 96 89 80 73 70 66 68 66 55 38 20 8 0 353 356 1 8 7 352 336 324 316 310 307 294 290 282 270 266 268 275 277 287 294 287 279
135 133 130 126 120 115 111 104 98 89 80 75 70 72 71 59 42 12 359 354 343 333 331 341 331 324 316 308 302 301 301 296 295 285 277 269 265 266 272 283 290 286 281
140 138 137 132 128 127 122 115 108 99 86 83 80 71 66 56 30 5 351 337 310 295 303 313 314 313 311 318 319 317 316 320 308 303 295 285 277 269 264 268 283 290 283
145 141 137 132 132 131 127 123 114 103 95 95 94 74 61 51 24 358 344 320 305 308 320 315 313 314 321 330 342 346 340 334 318 302 293 285 277 273 267 262 262 276 289
147 142 137 134 130 124 117 111 111 111 106 96 89 88 61 39 11 349 329 315 308 308 314 316 318 330 355 16 26 3 345 333 310 298 293 288 282 279 272 266 260 257 270
147 141 135 129 121 115 113 111 107 105 103 104 98 81 33 355 343 321 307 302 301 309 313 314 323 3 42 41 30 354 334 317 305 301 299 292 286 280 275 270 265 262 261
141 135 129 122 116 115 115 110 104 100 104 106 88 62 334 325 324 312 306 307 309 311 311 316 333 77 87 53 9 331 321 308 308 306 301 296 294 285 280 273 268 264 258
133 126 121 120 120 119 114 106 100 95 84 68 45 355 324 320 316 310 310 314 316 320 325 330 335 142 147 326 315 306 303 302 302 302 299 296 295 291 286 279 275 271 272
130 124 118 116 114 111 108 104 96 86 63 32 6 335 318 316 315 317 321 320 320 322 324 326 220 178 195 277 309 307 302 304 305 302 298 296 294 291 292 293 286 285 282
127 123 119 115 110 104 99 94 79 48 25 6 346 323 319 328 333 335 329 323 322 322 315 311 241 216 220 291 321 311 318 312 310 307 303 303 306 312 316 314 303 294 284
127 122 120 116 111 107 99 79 44 355 355 344 327 319 335 339 332 322 316 316 315 309 305 284 254 253 254 302 322 331 316 310 308 308 309 307 304 315 319 315 309 298 287
127 122 120 119 117 112 104 74 1 341 350 327 313 309 313 316 311 312 313 307 300 295 295 279 264 262 270 291 315 333 332 308 303 303 307 310 310 314 309 310 307 298 288
123 122 123 117 112 104 87 44 359 344 340 320 307 296 293 292 295 300 294 285 278 281 285 289 288 281 289 309 324 334 329 304 303 304 303 302 305 307 312 310 302 297 294
121 125 127 121 111 96 68 23 347 334 321 303 291 282 276 278 284 284 278 273 276 299 319 332 350 336 316 325 332 340 319 314 312 309 308 307 305 307 314 311 304 304 306
115 118 115 104 96 87 54 23 337 319 295 283 280 280 278 273 273 273 275 277 307 11 23 22 11 350 326 329 337 341 324 320 318 313 311 311 309 312 314 310 304 304 319
110 105 97 93 107 118 54 347 313 291 280 284 288 291 288 282 280 291 318 12 52 52 39 23 0 342 333 333 337 338 335 323 317 313 314 311 313 316 314 312 303 296 311
97 91 89 97 189 226 209 292 290 280 291 304 310 311 315 324 357 41 48 54 58 50 29 3 345 332 329 333 332 331 330 328 316 310 309 310 315 319 320 324 331 4 101
94 94 113 160 254 260 241 266 280 294 318 334 335 344 12 38 53 64 64 58 50 42 12 351 337 330 329 328 330 329 329 332 331 318 323 326 328 332 335 347 9 68 96
114 122 144 205 257 273 278 263 286 331 6 358 357 27 60 57 53 57 62 64 51 34 6 348 335 327 327 335 342 338 333 335 337 331 328 331 338 348 351 1 29 60 79
130 149 181 223 262 294 301 297 347 28 24 16 30 58 73 71 63 57 48 55 44 46 359 333 327 332 338 337 337 341 338 338 335 330 336 349 351 0 6 18 40 65 80
146 177 223 265 330 27 358 358 34 56 50 43 51 64 77 76 67 55 18 354 332 331 333 333 339 334 333 334 341 345 342 342 344 350 352 356 1 5 11 21 38 60 78